Voltar ao catálogo

TIANHUI 4B

AtivoCiênciaPO
NORAD 50573·PAYLOAD·🇨🇳 China

Lançado Dec 29, 2021 de Jiuquan Satellite Launch Center

Loading…

Próximas Passagens (próximas 24 horas)

TLE

AtualizadoSource: Space-Track

Época: Sep 14, 2026, 10:16 UTC

1 50573U 21134B   26257.42791234  .00004667  00000-0  89873-4 0  9997
2 50573  88.9684 309.9944 0010667  81.9150 278.3320 15.47560939263631

Acompanhe TIANHUI 4B em tempo real com AllMySat

Download on the App Store